Location: La Pernelle
(49.6188°N, 1.2999°W)
Time: 23:30:36
(UTC+00:00)

FENGYUN 1C DEB - Visible Passes

Search period start: 28 January 2022 00:00
Search period end: 07 February 2022 00:00
Orbit: 801 x 830 km, 98.9° (Epoch: 27 January)

Date Brightness Start Highest point End Pass type
(mag) Time Alt. Az. Time Alt. Az. Time Alt. Az.
30 Jan ? 20:17:39 10° N 20:17:39 10° N 20:17:42 10° N visible
31 Jan ? 19:55:07 10° N 19:55:07 10° N 19:55:10 10° N visible
02 Feb ? 20:51:16 11° N 20:51:16 11° N 20:51:30 10° N visible
03 Feb ? 20:28:42 12° N 20:28:42 12° N 20:29:09 10° N visible
04 Feb ? 20:06:08 12° N 20:06:08 12° N 20:06:40 10° N visible
05 Feb ? 19:43:34 12° NNE 19:43:34 12° NNE 19:44:02 10° NNE visible
05 Feb ? 21:24:49 11° NNW 21:24:49 11° NNW 21:25:03 10° NNW visible
06 Feb ? 19:21:00 10° NNE 19:21:00 10° NNE 19:21:05 10° NNE visible
06 Feb ? 21:02:15 13° N 21:02:15 13° N 21:02:50 10° N visible
